Retour au catalogue

THORAD AGENA D DEB

ActifLEO
NORAD 4438·DEBRIS·🇺🇸 United States

Lancé Sep 30, 1969 depuis Vandenberg Space Force Base

Loading…

Prochains Passages (prochaines 24 heures)

TLE

FraisSource: Space-Track

Époque: Sep 14, 2026, 08:05 UTC

1 04438U 69082EK  26257.33688057  .00001369  00000-0  25414-3 0  9994
2 04438  70.0965  24.8745 0044763  19.8112 340.4756 14.66821370987757

Suivez THORAD AGENA D DEB en temps réel avec AllMySat

Download on the App Store